Weather Service Report


437 
ASUS44 KSJT 302002
RWRSJT
WEST CENTRAL TEXAS REGIONAL WEATHER ROUNDUP
NATIONAL WEATHER SERVICE SAN ANGELO TX
300 PM CDT WED JUL 30 2014

NOTE: "FAIR" INDICATES FEW OR NO CLOUDS BELOW 12,000 FEET WITH NO
SIGNIFICANT WEATHER AND/OR OBSTRUCTIONS TO VISIBILITY.

TXZ049-054-064>066-071>073-076>078-098-099-113-114-127-128-139-140-
154-155-168>170-302100
...LOCATIONS ACROSS WEST CENTRAL TEXAS...
  
CITY           SKY/WX    TMP DP  RH WIND       PRES   REMARKS
SAN ANGELO     MOSUNNY  100  53  20 S16G24    29.94F                  
ABILENE        PTSUNNY   94  63  35 S17       29.96F                  
DYESS AFB      PTSUNNY   94  61  33 S16G24    29.94F                  
JUNCTION       MOSUNNY   97  51  21 SW10G20   29.97F                  
SWEETWATER     MOSUNNY   96  56  25 SW14G21   30.00F                  
BROWNWOOD      PTSUNNY   97  55  24 S12       29.96F                  
COLEMAN        MOCLDY    95  53  24 S14       29.96F                  
SONORA         SUNNY     97  52  21 S12G21    30.02F                  
OZONA          FAIR      97  52  21 S17       30.00F                  
BRADY          SUNNY     97  55  24 S13       29.97F                  
$$

TEXAS PANHANDLE/OKLAHOMA PANHANDLE
  
CITY           SKY/WX    TMP DP  RH WIND       PRES   REMARKS
AMARILLO       PTSUNNY   81  63  54 N18G29    30.09S                  
BORGER         CLOUDY    74  62  66 N15       30.09R                  
CANADIAN       CLOUDY    75  68  78 NW5       30.02S                  
DALHART        PTSUNNY   75  60  59 N25G36    30.18R                  
DUMAS          CLOUDY    71  61  71 N24G32    30.15R                  
GUYMON         NOT AVBL                                               
HEREFORD       PTCLDY    85  64  50 N14G21    30.11S                  
PAMPA          CLOUDY    75  62  62 N15G22    30.08S                  
PERRYTON       CLOUDY    68  64  88 NE23G32   30.06R                  
$$

SOUTHERN PANHANDLE/SOUTH PLAINS/ROLLING PLAINS
  
CITY           SKY/WX    TMP DP  RH WIND       PRES   REMARKS
LUBBOCK        PTSUNNY   94  62  34 N7        30.02F                  
SNYDER         MOSUNNY   94  62  34 S9G16     29.96F                  
CHILDRESS      SUNNY     83  70  64 CALM      30.00F                  
SEMINOLE       PTCLDY    99  51  19 N7        29.99F                  
$$

PERMIAN BASIN
  
CITY           SKY/WX    TMP DP  RH WIND       PRES   REMARKS
MIDLAND        SUNNY     99  54  22 S7        29.96F                  
ODESSA         SUNNY     99  49  18 W8G17     29.98F                  
WINK           SUNNY    105  50  15 NE8       29.93F                  
$$

FAR WEST/SOUTHWEST MOUNTAINS/TRANS PECOS
  
CITY           SKY/WX    TMP DP  RH WIND       PRES   REMARKS
ALPINE         PTCLDY    92  50  23 NE7       30.15S                  
DRYDEN           N/A    103  52  18 E6        29.94F                  
EL PASO        MOSUNNY   97  52  21 NW12      30.05F                  
FORT STOCKTON  MOSUNNY  101  49  17 N8        29.97F                  
GUADALUPE PASS SUNNY     95  52  23 W15G25    30.18F                  
MARFA          PTSUNNY   91  52  25 SW5       30.15F                  
PECOS          NOT AVBL                                               
$$

DALLAS/FORT WORTH METROPLEX
  
CITY           SKY/WX    TMP DP  RH WIND       PRES   REMARKS
DFW AIRPORT    CLOUDY    85  70  60 SE14      29.99F                  
FTW MEACHAM    CLOUDY    85  71  63 SE16      29.97F                  
DAL-EXECUTIVE  PTSUNNY   87  72  60 SE9       30.00F                  
GRAND PRAIRIE  MOSUNNY   84  70  61 E8        30.01F                  
ADDISON        CLOUDY    84  68  58 SE15      30.01F                  
MESQUITE       PTCLDY    88  70  55 SE7       30.01F                  
LANCASTER      MOCLDY    87  69  56 SE9       30.00F                  
$$

NORTH CENTRAL TEXAS
  
CITY           SKY/WX    TMP DP  RH WIND       PRES   REMARKS
SHRMAN/DENISON CLOUDY    78  69  75 SE10      30.02F                  
GAINESVILLE    CLOUDY    78  71  81 E12       30.01F                  
BRIDGEPORT     CLOUDY    83  65  54 S8        29.99F                  
DENTON         CLOUDY    81  68  64 SE13      29.99F                  
WAXAHACHIE     MOCLDY    86  67  53 SE8       30.00F                  
GRANBURY       MOCLDY    91  65  42 SE12      29.98F                  
$$

WESTERN NORTH TEXAS
  
CITY           SKY/WX    TMP DP  RH WIND       PRES   REMARKS
WICHITA FALLS  LGT RAIN  81  72  74 SE15      29.94F                  
VERNON         MOCLDY    81  71  69 E6        29.97F                  
BRECKENRIDGE   MOCLDY    95  55  26 S17       29.94F                  
COMANCHE       PTSUNNY   95  56  26 SW13      29.97F                  
$$

CENTRAL AND SOUTH CENTRAL TEXAS
  
CITY           SKY/WX    TMP DP  RH WIND       PRES   REMARKS
AUSTIN/BERGSTM PTSUNNY   95  64  35 SE14      29.96F                  
WACO           SUNNY     94  71  47 S12G18    29.98F                  
HILLSBORO      MOCLDY    91  67  46 S13G20    29.98F                  
TEMPLE         MOSUNNY   91  70  49 S16       29.98F                  
KILLEEN-GRAY   MOSUNNY   91  66  43 SE13G25   29.97F                  
FORT HOOD      SUNNY     96  67  38 SE13G23   29.97F                  
GEORGETOWN     SUNNY     91  66  43 S10G18    29.98F                  
LAGO VISTA     FAIR      93  59  31 S7G18     30.01F                  
SAN MARCOS     SUNNY     97  63  32 SE14G21   29.98F                  
NEW BRAUNFELS  MOSUNNY   95  60  31 CALM      29.96F                  
RANDOLPH AFB   MOSUNNY   96  56  25 SW9       29.97F                  
SAN ANTONIO    PTSUNNY   95  61  32 SE8       29.98F                  
STINSON        SUNNY     96  62  32 SE13      29.95F                  
PLEASANTON     NOT AVBL                                               
LA GRANGE      MOSUNNY   93  72  51 SE9       29.96F                  
GIDDINGS       MOCLDY    92  67  43 S3        30.02F                  
$$

EAST TEXAS
  
CITY           SKY/WX    TMP DP  RH WIND       PRES   REMARKS
PARIS          CLOUDY    72  66  83 SE12      30.05F                  
CLARKSVILLE    CLOUDY    74  72  95 SE3       30.07F                  
TYLER          CLOUDY    83  69  62 SE9       30.04F                  
LONGVIEW       CLOUDY    86  69  56 VRB5      30.04F                  
PALESTINE      NOT AVBL                                               
NACOGDOCHES    SUNNY     86  70  58 S5        30.04F                  
$$

TEXAS HILL COUNTRY AND EDWARDS PLATEAU
  
CITY           SKY/WX    TMP DP  RH WIND       PRES   REMARKS
LLANO          NOT AVBL                                               
HORSESHOE BAY  FAIR      95  53  23 S13G21    29.98F                  
KERRVILLE      MOSUNNY   94  53  24 S15       30.00F                  
FREDERICKSBRG  MOSUNNY   93  49  22 S9G17     30.00F                  
ROCKSPRINGS    NOT AVBL                                               
HONDO          SUNNY     95  58  28 SE10      29.98F                  
UVALDE         CLEAR     98  55  23 SE12G18   29.95F                  
DEL RIO        SUNNY    100  58  24 SE14G22   29.90F                  
$$

SOUTHEAST TEXAS
  
CITY           SKY/WX    TMP DP  RH WIND       PRES   REMARKS
COLLEGE STN    MOSUNNY   91  72  53 MISG      29.99F                  
CALDWELL       NOT AVBL                                               
CROCKETT       NOT AVBL                                               
BRENHAM        NOT AVBL                                               
HUNTSVILLE     MOSUNNY   90  69  50 CALM      30.01F                  
CONROE         PTSUNNY   90  72  55 SE10      30.01F                  
HOUSTON BUSH   PTSUNNY   90  70  51 VRB7      29.99F                  
HOUSTON HOBBY  PTSUNNY   91  72  53 SE10      29.99F                  
PERLAND        MOSUNNY   92  72  51 E10       30.01F                  
WHARTON        PTCLDY    93  70  47 S9        29.98F                  
$$

THE UPPER TEXAS COAST
  
CITY           SKY/WX    TMP DP  RH WIND       PRES   REMARKS
ORANGE         PTCLDY    87  66  49 E5        30.03F                  
PORT ARTHUR    SUNNY     90  68  48 VRB5      30.02F                  
GALVESTON      MOSUNNY   91  74  57 E12       30.01F                  
ANGLETON       PTSUNNY   88  75  65 SE12      30.00F                  
BAY CITY       CLEAR     93  72  50 SE8       29.98F                  
$$

TEXAS COASTAL BEND, RIO GRANDE PLAINS DEEP SOUTH TEXAS
  
CITY           SKY/WX    TMP DP  RH WIND       PRES   REMARKS
VICTORIA       SUNNY     97  67  37 S9        29.97F                  
BEEVILLE       FAIR      98  63  31 S12G18    29.94F                  
ROCKPORT       SUNNY     90  72  55 SE14      29.97F                  
PORT ARANSAS   CLEAR     87  76  69 SE10      29.98F                  
PORT LAVACA    CLEAR     93  67  43 S8        29.97F                  
CORPUS CHRISTI MOSUNNY   94  70  45 SE18G25   29.95F                  
KINGSVILLE NAS MOSUNNY   98  74  45 SE15      29.94F                  
COTULLA        SUNNY    100  53  20 SE6G21    29.92F                  
LAREDO         SUNNY    101  62  27 S10       29.93F                  
BROWNSVILLE    MOSUNNY   95  73  48 SE17G23   29.95F                  
PORT ISABEL    SUNNY     92  75  57 SE18G28   29.94F                  
HEBBRONVILLE   NOT AVBL                                               
MCALLEN        SUNNY    102  60  25 S15G24    29.91F                  
WESLACO        SUNNY    101  63  28 S9G17     29.91F                  
FALFURRIAS     CLEAR     91  53  27 SE12G21   29.91F                  
EDINBURG       CLEAR    104  55  19 S9G21     29.90F                  
$$

Return to Home page


Western Regional Climate Center, wrcc@dri.edu